{"data":{"norad_id":64527,"intl_designator":"2025-131D","name":"COSMOS 2590","alt_names":[],"object_type":"PAYLOAD","status":"ACTIVE","operator":null,"country":"CIS","launch_date":"2025-06-19","launch_site_code":"PLMSC","launch_vehicle":null,"mission":null,"orbit_class":"UNKNOWN","rcs_meters":null,"size_class":null,"mass_kg":null,"dimensions":null,"purposes":[],"wikipedia_slug":null,"has_3d_model":false,"image_url":null,"decayed_at":null,"tle_current":{"epoch":"2026-09-19T20:33:36.427104Z","epoch_age_seconds":236600,"freshness":"STALE","line1":"1 64527U 25131D   26262.85667161 -.00000172  00000+0  00000+0 0  9993","line2":"2 64527   0.8298  82.6424 3639758  20.1422 287.0647  1.00213713  4557","mean_motion":1.00213713,"eccentricity":0.3639758,"inclination_deg":0.8298,"raan_deg":82.6424,"arg_perigee_deg":20.1422,"mean_anomaly_deg":287.0647,"bstar":0,"rev_number":455,"period_min":1436.9290957217,"perigee_km":20450.012190204,"apogee_km":51155.752833482,"semimajor_km":42181.019511843,"source":"CELESTRAK","updated_at":"2026-09-22T09:00:29.814180Z"}}}